Time,TemperatureF,DewpointF,PressureIn,WindDirection,WindDirectionDegrees,WindSpeedMPH,WindSpeedGustMPH,Humidity,HourlyPrecipIn,Conditions,Clouds,dailyrainin,SoftwareType,DateUTC
2013-05-18 00:04:00,31.2,25.7,29.45,East,97,2.0,2.0,80,0.00,,,0.00,Wunderground v.1.15,2013-05-18 08:04:00,
2013-05-18 00:09:00,31.2,25.7,29.45,ENE,75,1.0,2.0,80,0.00,,,0.00,Wunderground v.1.15,2013-05-18 08:09:00,
2013-05-18 00:15:00,31.2,25.4,29.45,ENE,75,0.0,1.0,79,0.00,,,0.00,Wunderground v.1.15,2013-05-18 08:15:00,
2013-05-18 00:21:00,31.2,25.4,29.45,ENE,59,1.0,2.0,79,0.00,,,0.00,Wunderground v.1.15,2013-05-18 08:21:00,
2013-05-18 00:27:00,31.0,25.6,29.46,NE,51,2.0,3.0,80,0.00,,,0.00,Wunderground v.1.15,2013-05-18 08:27:00,
2013-05-18 00:33:00,31.1,25.3,29.46,NE,44,2.0,2.0,79,0.00,,,0.00,Wunderground v.1.15,2013-05-18 08:33:00,
2013-05-18 00:39:00,31.2,25.4,29.46,NE,43,1.0,3.0,79,0.00,,,0.00,Wunderground v.1.15,2013-05-18 08:39:00,
2013-05-18 00:45:00,31.1,25.7,29.46,East,82,1.0,3.0,80,0.00,,,0.00,Wunderground v.1.15,2013-05-18 08:45:00,
2013-05-18 00:50:00,31.1,25.3,29.46,ESE,105,3.0,6.0,79,0.00,,,0.00,Wunderground v.1.15,2013-05-18 08:50:00,
2013-05-18 00:56:00,30.8,25.7,29.46,East,89,5.0,7.0,81,0.00,,,0.00,Wunderground v.1.15,2013-05-18 08:56:00,
2013-05-18 01:02:00,30.3,25.8,29.46,East,98,6.0,7.0,83,0.00,,,0.00,Wunderground v.1.15,2013-05-18 09:02:00,
2013-05-18 01:08:00,29.8,26.1,29.47,East,96,7.0,8.0,86,0.00,,,0.00,Wunderground v.1.15,2013-05-18 09:08:00,
2013-05-18 01:13:00,29.5,26.4,29.47,ESE,105,6.0,7.0,88,0.00,,,0.00,Wunderground v.1.15,2013-05-18 09:13:00,
2013-05-18 01:18:00,29.2,26.6,29.47,ESE,114,6.0,7.0,90,0.00,,,0.00,Wunderground v.1.15,2013-05-18 09:18:00,
2013-05-18 01:24:00,29.0,27.0,29.47,East,98,5.0,6.0,92,0.00,,,0.00,Wunderground v.1.15,2013-05-18 09:24:00,
2013-05-18 01:30:00,28.9,26.9,29.47,ESE,110,4.0,5.0,92,0.00,,,0.00,Wunderground v.1.15,2013-05-18 09:30:00,
2013-05-18 01:36:00,28.9,27.1,29.47,ESE,110,5.0,8.0,93,0.00,,,0.00,Wunderground v.1.15,2013-05-18 09:36:00,
2013-05-18 01:42:00,28.8,27.0,29.47,ESE,115,7.0,9.0,93,0.00,,,0.00,Wunderground v.1.15,2013-05-18 09:42:00,
2013-05-18 01:48:00,28.8,27.0,29.47,East,100,8.0,12.0,93,0.00,,,0.00,Wunderground v.1.15,2013-05-18 09:48:00,
2013-05-18 01:54:00,28.5,26.5,29.48,ESE,111,8.0,11.0,92,0.00,,,0.00,Wunderground v.1.15,2013-05-18 09:54:00,
2013-05-18 01:59:00,28.3,26.3,29.48,ESE,105,8.0,11.0,92,0.00,,,0.00,Wunderground v.1.15,2013-05-18 09:59:00,
2013-05-18 02:05:00,28.2,26.2,29.48,ESE,108,7.0,8.0,92,0.00,,,0.00,Wunderground v.1.15,2013-05-18 10:05:00,
2013-05-18 02:11:00,28.2,26.2,29.48,East,82,6.0,7.0,92,0.00,,,0.00,Wunderground v.1.15,2013-05-18 10:11:00,
2013-05-18 02:17:00,28.3,26.3,29.48,ENE,74,4.0,7.0,92,0.00,,,0.00,Wunderground v.1.15,2013-05-18 10:17:00,
2013-05-18 02:22:00,28.3,26.3,29.48,NE,56,2.0,3.0,92,0.00,,,0.00,Wunderground v.1.15,2013-05-18 10:22:00,
2013-05-18 02:28:00,28.3,26.5,29.49,ENE,63,1.0,3.0,93,0.00,,,0.00,Wunderground v.1.15,2013-05-18 10:28:00,
2013-05-18 02:34:00,28.2,26.4,29.49,NE,49,2.0,4.0,93,0.00,,,0.00,Wunderground v.1.15,2013-05-18 10:34:00,
2013-05-18 02:40:00,28.1,26.3,29.49,ENE,58,2.0,2.0,93,0.00,,,0.00,Wunderground v.1.15,2013-05-18 10:40:00,
2013-05-18 02:46:00,28.0,26.2,29.49,NE,51,2.0,4.0,93,0.00,,,0.00,Wunderground v.1.15,2013-05-18 10:46:00,
2013-05-18 02:52:00,27.9,26.1,29.49,ENE,76,3.0,3.0,93,0.00,,,0.00,Wunderground v.1.15,2013-05-18 10:52:00,
2013-05-18 02:58:00,27.8,26.0,29.50,East,87,3.0,4.0,93,0.00,,,0.00,Wunderground v.1.15,2013-05-18 10:58:00,
2013-05-18 03:03:00,27.7,25.9,29.50,East,93,4.0,6.0,93,0.00,,,0.00,Wunderground v.1.15,2013-05-18 11:03:00,
2013-05-18 03:09:00,27.6,25.8,29.50,East,93,5.0,7.0,93,0.00,,,0.00,Wunderground v.1.15,2013-05-18 11:09:00,
2013-05-18 03:15:00,27.6,26.1,29.50,East,90,5.0,5.0,94,0.00,,,0.00,Wunderground v.1.15,2013-05-18 11:15:00,
2013-05-18 03:21:00,27.6,26.1,29.50,East,86,3.0,4.0,94,0.00,,,0.00,Wunderground v.1.15,2013-05-18 11:21:00,
2013-05-18 03:26:00,27.6,26.1,29.50,ENE,62,2.0,4.0,94,0.00,,,0.00,Wunderground v.1.15,2013-05-18 11:26:00,
2013-05-18 03:32:00,27.7,26.2,29.50,NE,49,1.0,1.0,94,0.00,,,0.00,Wunderground v.1.15,2013-05-18 11:32:00,
2013-05-18 03:38:00,27.7,26.2,29.50,NE,38,1.0,2.0,94,0.00,,,0.00,Wunderground v.1.15,2013-05-18 11:38:00,
2013-05-18 03:44:00,27.7,26.2,29.51,ENE,75,1.0,2.0,94,0.00,,,0.00,Wunderground v.1.15,2013-05-18 11:44:00,
2013-05-18 03:49:00,27.6,26.1,29.51,NE,52,1.0,2.0,94,0.00,,,0.00,Wunderground v.1.15,2013-05-18 11:49:00,
2013-05-18 03:55:00,27.6,26.4,29.51,NE,38,1.0,2.0,95,0.00,,,0.00,Wunderground v.1.15,2013-05-18 11:55:00,
2013-05-18 04:01:00,27.6,26.4,29.51,NE,51,2.0,2.0,95,0.00,,,0.00,Wunderground v.1.15,2013-05-18 12:01:00,
2013-05-18 04:07:00,27.6,26.4,29.51,NE,45,3.0,4.0,95,0.00,,,0.00,Wunderground v.1.15,2013-05-18 12:07:00,
2013-05-18 04:12:00,27.5,26.3,29.51,ENE,62,3.0,3.0,95,0.00,,,0.00,Wunderground v.1.15,2013-05-18 12:12:00,
2013-05-18 04:18:00,27.4,26.2,29.51,NE,46,2.0,3.0,95,0.00,,,0.00,Wunderground v.1.15,2013-05-18 12:18:00,
2013-05-18 04:24:00,27.4,26.2,29.51,ENE,72,3.0,4.0,95,0.00,,,0.00,Wunderground v.1.15,2013-05-18 12:24:00,
2013-05-18 04:30:00,27.3,26.1,29.51,NE,49,3.0,3.0,95,0.00,,,0.00,Wunderground v.1.15,2013-05-18 12:30:00,
2013-05-18 04:35:00,27.3,26.1,29.52,NE,49,3.0,3.0,95,0.00,,,0.00,Wunderground v.1.15,2013-05-18 12:35:00,
2013-05-18 04:41:00,27.3,26.1,29.52,ENE,61,2.0,5.0,95,0.00,,,0.00,Wunderground v.1.15,2013-05-18 12:41:00,
2013-05-18 04:47:00,27.3,26.1,29.52,ENE,66,3.0,6.0,95,0.00,,,0.00,Wunderground v.1.15,2013-05-18 12:47:00,
2013-05-18 04:52:00,27.3,26.1,29.52,ENE,58,3.0,3.0,95,0.00,,,0.00,Wunderground v.1.15,2013-05-18 12:52:00,
2013-05-18 04:58:00,27.3,26.1,29.53,NE,41,3.0,5.0,95,0.00,,,0.00,Wunderground v.1.15,2013-05-18 12:58:00,
2013-05-18 05:04:00,27.3,26.1,29.53,ENE,59,2.0,3.0,95,0.00,,,0.00,Wunderground v.1.15,2013-05-18 13:04:00,
2013-05-18 05:10:00,27.3,26.1,29.53,ENE,58,3.0,3.0,95,0.00,,,0.00,Wunderground v.1.15,2013-05-18 13:10:00,
2013-05-18 05:15:00,27.3,26.1,29.53,NE,44,3.0,4.0,95,0.00,,,0.00,Wunderground v.1.15,2013-05-18 13:15:00,
2013-05-18 05:21:00,27.3,26.1,29.53,NE,38,2.0,3.0,95,0.00,,,0.00,Wunderground v.1.15,2013-05-18 13:21:00,
2013-05-18 05:27:00,27.3,26.1,29.53,NNE,25,1.0,3.0,95,0.00,,,0.00,Wunderground v.1.15,2013-05-18 13:27:00,
2013-05-18 05:33:00,27.3,26.1,29.53,ENE,58,1.0,1.0,95,0.00,,,0.00,Wunderground v.1.15,2013-05-18 13:33:00,
2013-05-18 05:38:00,27.3,26.1,29.53,ENE,58,0.0,1.0,95,0.00,,,0.00,Wunderground v.1.15,2013-05-18 13:38:00,
2013-05-18 05:44:00,27.2,26.0,29.54,ENE,63,1.0,1.0,95,0.00,,,0.00,Wunderground v.1.15,2013-05-18 13:44:00,
2013-05-18 05:50:00,27.2,26.0,29.54,ENE,65,1.0,1.0,95,0.00,,,0.00,Wunderground v.1.15,2013-05-18 13:50:00,
2013-05-18 05:56:00,27.2,26.0,29.54,ENE,61,1.0,1.0,95,0.00,,,0.00,Wunderground v.1.15,2013-05-18 13:56:00,
2013-05-18 06:02:00,27.1,25.9,29.54,NE,37,1.0,8.0,95,0.00,,,0.00,Wunderground v.1.15,2013-05-18 14:02:00,
2013-05-18 06:08:00,27.0,25.8,29.54,East,85,3.0,8.0,95,0.00,,,0.00,Wunderground v.1.15,2013-05-18 14:08:00,
2013-05-18 06:14:00,27.1,25.9,29.55,East,79,2.0,8.0,95,0.00,,,0.00,Wunderground v.1.15,2013-05-18 14:14:00,
2013-05-18 06:19:00,27.1,25.9,29.55,South,176,2.0,8.0,95,0.00,,,0.00,Wunderground v.1.15,2013-05-18 14:19:00,
2013-05-18 06:25:00,27.1,25.9,29.55,NW,321,2.0,8.0,95,0.00,,,0.00,Wunderground v.1.15,2013-05-18 14:25:00,
2013-05-18 06:31:00,27.1,25.6,29.55,SW,229,2.0,8.0,94,0.00,,,0.00,Wunderground v.1.15,2013-05-18 14:31:00,
2013-05-18 06:37:00,27.1,25.9,29.56,North,9,2.0,8.0,95,0.00,,,0.00,Wunderground v.1.15,2013-05-18 14:37:00,
2013-05-18 06:42:00,27.0,25.8,29.56,East,88,3.0,8.0,95,0.00,,,0.00,Wunderground v.1.15,2013-05-18 14:42:00,
2013-05-18 06:48:00,26.9,25.4,29.56,NNW,331,3.0,8.0,94,0.00,,,0.00,Wunderground v.1.15,2013-05-18 14:48:00,
2013-05-18 06:54:00,26.9,25.4,29.56,East,98,5.0,8.0,94,0.00,,,0.00,Wunderground v.1.15,2013-05-18 14:54:00,
2013-05-18 07:00:00,26.9,25.4,29.57,SE,129,5.0,8.0,94,0.00,,,0.00,Wunderground v.1.15,2013-05-18 15:00:00,
2013-05-18 07:06:00,26.9,25.4,29.57,SE,142,4.0,8.0,94,0.00,,,0.00,Wunderground v.1.15,2013-05-18 15:06:00,
2013-05-18 07:12:00,26.9,25.4,29.58,East,95,2.0,8.0,94,0.00,,,0.00,Wunderground v.1.15,2013-05-18 15:12:00,
2013-05-18 07:18:00,27.0,25.2,29.58,East,80,1.0,8.0,93,0.00,,,0.00,Wunderground v.1.15,2013-05-18 15:18:00,
2013-05-18 07:24:00,27.0,24.2,29.58,ENE,78,4.0,10.0,89,0.00,,,0.00,Wunderground v.1.15,2013-05-18 15:24:00,
2013-05-18 07:29:00,26.4,23.6,29.58,East,96,7.0,10.0,89,0.00,,,0.00,Wunderground v.1.15,2013-05-18 15:29:00,
2013-05-18 07:35:00,26.2,23.7,29.58,South,169,5.0,8.0,90,0.00,,,0.00,Wunderground v.1.15,2013-05-18 15:35:00,
2013-05-18 07:41:00,26.4,23.9,29.59,East,84,4.0,8.0,90,0.00,,,0.00,Wunderground v.1.15,2013-05-18 15:41:00,
2013-05-18 07:47:00,26.5,23.7,29.59,ESE,121,4.0,8.0,89,0.00,,,0.00,Wunderground v.1.15,2013-05-18 15:47:00,
2013-05-18 07:53:00,26.5,23.4,29.59,ESE,109,4.0,8.0,88,0.00,,,0.00,Wunderground v.1.15,2013-05-18 15:53:00,
2013-05-18 07:59:00,26.6,23.5,29.60,SE,124,3.0,8.0,88,0.00,,,0.00,Wunderground v.1.15,2013-05-18 15:59:00,
2013-05-18 08:05:00,26.4,22.8,29.60,ESE,115,4.0,8.0,86,0.00,,,0.00,Wunderground v.1.15,2013-05-18 16:05:00,
2013-05-18 08:10:00,26.3,22.1,29.61,SE,124,5.0,8.0,84,0.00,,,0.00,Wunderground v.1.15,2013-05-18 16:10:00,
2013-05-18 08:16:00,26.2,21.7,29.61,SE,129,6.0,8.0,83,0.00,,,0.00,Wunderground v.1.15,2013-05-18 16:16:00,
2013-05-18 08:22:00,26.1,21.9,29.61,East,84,4.0,8.0,84,0.00,,,0.00,Wunderground v.1.15,2013-05-18 16:22:00,
2013-05-18 08:28:00,26.2,21.7,29.61,NE,56,3.0,8.0,83,0.00,,,0.00,Wunderground v.1.15,2013-05-18 16:28:00,
2013-05-18 08:33:00,26.3,21.8,29.62,ESE,102,3.0,8.0,83,0.00,,,0.00,Wunderground v.1.15,2013-05-18 16:33:00,
2013-05-18 08:39:00,26.4,21.7,29.62,East,87,5.0,8.0,82,0.00,,,0.00,Wunderground v.1.15,2013-05-18 16:39:00,
2013-05-18 08:45:00,26.6,21.3,29.63,ESE,114,5.0,8.0,80,0.00,,,0.00,Wunderground v.1.15,2013-05-18 16:45:00,
2013-05-18 08:51:00,26.7,21.1,29.63,SE,137,5.0,8.0,79,0.00,,,0.00,Wunderground v.1.15,2013-05-18 16:51:00,
2013-05-18 08:57:00,26.9,20.7,29.63,SE,135,4.0,8.0,77,0.00,,,0.00,Wunderground v.1.15,2013-05-18 16:57:00,
2013-05-18 09:03:00,27.1,20.5,29.64,ESE,115,5.0,8.0,76,0.00,,,0.00,Wunderground v.1.15,2013-05-18 17:03:00,
2013-05-18 09:09:00,27.3,20.7,29.64,ESE,120,5.0,8.0,76,0.00,,,0.00,Wunderground v.1.15,2013-05-18 17:09:00,
2013-05-18 09:14:00,27.3,19.8,29.64,ESE,119,6.0,8.0,73,0.00,,,0.00,Wunderground v.1.15,2013-05-18 17:14:00,
2013-05-18 09:20:00,27.5,20.6,29.65,East,79,5.0,5.0,75,0.00,,,0.00,Wunderground v.1.15,2013-05-18 17:20:00,
2013-05-18 09:26:00,27.6,20.1,29.65,East,86,5.0,8.0,73,0.00,,,0.00,Wunderground v.1.15,2013-05-18 17:26:00,
2013-05-18 09:32:00,27.6,19.8,29.65,East,89,6.0,8.0,72,0.00,,,0.00,Wunderground v.1.15,2013-05-18 17:32:00,
2013-05-18 09:37:00,27.7,19.5,29.65,ESE,103,6.0,8.0,71,0.00,,,0.00,Wunderground v.1.15,2013-05-18 17:37:00,
2013-05-18 09:43:00,27.7,19.5,29.66,ESE,114,6.0,8.0,71,0.00,,,0.00,Wunderground v.1.15,2013-05-18 17:43:00,
2013-05-18 09:49:00,27.8,18.9,29.66,SE,125,7.0,9.0,69,0.00,,,0.00,Wunderground v.1.15,2013-05-18 17:49:00,
2013-05-18 09:55:00,27.8,19.3,29.66,East,85,7.0,10.0,70,0.00,,,0.00,Wunderground v.1.15,2013-05-18 17:55:00,
2013-05-18 10:01:00,27.9,18.0,29.67,ESE,121,6.0,8.0,66,0.00,,,0.00,Wunderground v.1.15,2013-05-18 18:01:00,
2013-05-18 10:07:00,28.1,18.9,29.67,SE,124,6.0,8.0,68,0.00,,,0.00,Wunderground v.1.15,2013-05-18 18:07:00,
2013-05-18 10:13:00,28.1,18.2,29.67,East,94,6.0,8.0,66,0.00,,,0.00,Wunderground v.1.15,2013-05-18 18:13:00,
2013-05-18 10:19:00,28.2,19.0,29.67,ESE,110,6.0,8.0,68,0.00,,,0.00,Wunderground v.1.15,2013-05-18 18:19:00,
2013-05-18 10:24:00,28.3,18.7,29.68,East,98,6.0,11.0,67,0.00,,,0.00,Wunderground v.1.15,2013-05-18 18:24:00,
2013-05-18 10:30:00,28.2,17.2,29.68,SE,145,8.0,8.0,63,0.00,,,0.00,Wunderground v.1.15,2013-05-18 18:30:00,
2013-05-18 10:36:00,28.1,17.8,29.68,ESE,122,7.0,10.0,65,0.00,,,0.00,Wunderground v.1.15,2013-05-18 18:36:00,
2013-05-18 10:42:00,28.1,17.8,29.69,ESE,114,7.0,8.0,65,0.00,,,0.00,Wunderground v.1.15,2013-05-18 18:42:00,
2013-05-18 10:48:00,28.1,18.2,29.69,ESE,117,7.0,10.0,66,0.00,,,0.00,Wunderground v.1.15,2013-05-18 18:48:00,
2013-05-18 10:54:00,28.1,17.5,29.69,SE,129,7.0,9.0,64,0.00,,,0.00,Wunderground v.1.15,2013-05-18 18:54:00,
2013-05-18 11:00:00,28.1,18.2,29.70,SSE,150,7.0,7.0,66,0.00,,,0.00,Wunderground v.1.15,2013-05-18 19:00:00,
2013-05-18 11:05:00,28.2,17.9,29.70,SE,133,7.0,9.0,65,0.00,,,0.00,Wunderground v.1.15,2013-05-18 19:05:00,
2013-05-18 11:11:00,28.4,18.1,29.70,ESE,119,6.0,8.0,65,0.00,,,0.00,Wunderground v.1.15,2013-05-18 19:11:00,
2013-05-18 11:17:00,28.7,18.4,29.70,ENE,72,5.0,8.0,65,0.00,,,0.00,Wunderground v.1.15,2013-05-18 19:17:00,
2013-05-18 11:23:00,28.6,18.7,29.71,SE,129,7.0,10.0,66,0.00,,,0.00,Wunderground v.1.15,2013-05-18 19:23:00,
2013-05-18 11:28:00,28.4,18.8,29.71,East,98,9.0,14.0,67,0.00,,,0.00,Wunderground v.1.15,2013-05-18 19:28:00,
2013-05-18 11:34:00,28.6,19.0,29.71,SE,131,8.0,9.0,67,0.00,,,0.00,Wunderground v.1.15,2013-05-18 19:34:00,
2013-05-18 11:40:00,28.7,19.5,29.72,SE,130,7.0,7.0,68,0.00,,,0.00,Wunderground v.1.15,2013-05-18 19:40:00,
2013-05-18 11:46:00,28.9,19.3,29.72,East,89,7.0,10.0,67,0.00,,,0.00,Wunderground v.1.15,2013-05-18 19:46:00,
2013-05-18 11:52:00,29.0,19.8,29.72,ENE,64,9.0,11.0,68,0.00,,,0.00,Wunderground v.1.15,2013-05-18 19:52:00,
2013-05-18 11:58:00,29.2,20.3,29.73,East,84,8.0,11.0,69,0.00,,,0.00,Wunderground v.1.15,2013-05-18 19:58:00,
2013-05-18 12:04:00,28.8,19.6,29.73,SE,141,8.0,12.0,68,0.00,,,0.00,Wunderground v.1.15,2013-05-18 20:04:00,
2013-05-18 12:09:00,28.8,19.9,29.73,East,92,9.0,12.0,69,0.00,,,0.00,Wunderground v.1.15,2013-05-18 20:09:00,
2013-05-18 12:15:00,28.8,20.2,29.73,SSE,149,9.0,9.0,70,0.00,,,0.00,Wunderground v.1.15,2013-05-18 20:15:00,
2013-05-18 12:21:00,28.6,19.7,29.73,East,101,9.0,13.0,69,0.00,,,0.00,Wunderground v.1.15,2013-05-18 20:21:00,
2013-05-18 12:27:00,28.7,20.5,29.73,ESE,114,9.0,13.0,71,0.00,,,0.00,Wunderground v.1.15,2013-05-18 20:27:00,
2013-05-18 12:32:00,29.0,20.8,29.74,East,91,9.0,10.0,71,0.00,,,0.00,Wunderground v.1.15,2013-05-18 20:32:00,
2013-05-18 12:38:00,29.2,20.3,29.74,SSE,150,9.0,11.0,69,0.00,,,0.00,Wunderground v.1.15,2013-05-18 20:38:00,
2013-05-18 12:44:00,29.1,20.5,29.74,SE,143,9.0,12.0,70,0.00,,,0.00,Wunderground v.1.15,2013-05-18 20:44:00,
2013-05-18 12:50:00,29.1,20.2,29.75,ESE,121,9.0,13.0,69,0.00,,,0.00,Wunderground v.1.15,2013-05-18 20:50:00,
2013-05-18 12:56:00,29.2,21.0,29.75,ESE,113,9.0,13.0,71,0.00,,,0.00,Wunderground v.1.15,2013-05-18 20:56:00,
2013-05-18 13:02:00,29.2,20.6,29.75,ESE,120,9.0,13.0,70,0.00,,,0.00,Wunderground v.1.15,2013-05-18 21:02:00,
2013-05-18 13:08:00,29.5,20.9,29.76,SE,135,9.0,13.0,70,0.00,,,0.00,Wunderground v.1.15,2013-05-18 21:08:00,
2013-05-18 13:13:00,29.3,21.1,29.76,SSE,152,9.0,11.0,71,0.00,,,0.00,Wunderground v.1.15,2013-05-18 21:13:00,
2013-05-18 13:19:00,29.7,21.8,29.76,SE,146,9.0,11.0,72,0.00,,,0.00,Wunderground v.1.15,2013-05-18 21:19:00,
2013-05-18 13:25:00,30.0,22.4,29.76,SSE,147,9.0,12.0,73,0.00,,,0.00,Wunderground v.1.15,2013-05-18 21:25:00,
2013-05-18 13:31:00,30.2,22.6,29.77,ESE,114,9.0,10.0,73,0.00,,,0.00,Wunderground v.1.15,2013-05-18 21:31:00,
2013-05-18 13:36:00,30.4,22.4,29.77,ESE,111,9.0,11.0,72,0.00,,,0.00,Wunderground v.1.15,2013-05-18 21:36:00,
2013-05-18 13:42:00,29.9,22.0,29.77,SE,146,10.0,14.0,72,0.00,,,0.00,Wunderground v.1.15,2013-05-18 21:42:00,
2013-05-18 13:48:00,30.2,22.6,29.78,SE,146,9.0,14.0,73,0.00,,,0.00,Wunderground v.1.15,2013-05-18 21:48:00,
2013-05-18 13:54:00,30.3,22.4,29.78,SSE,158,8.0,12.0,72,0.00,,,0.00,Wunderground v.1.15,2013-05-18 21:54:00,
2013-05-18 13:59:00,30.3,22.7,29.78,SE,145,9.0,12.0,73,0.00,,,0.00,Wunderground v.1.15,2013-05-18 21:59:00,
2013-05-18 14:05:00,30.1,22.2,29.78,SE,130,9.0,12.0,72,0.00,,,0.00,Wunderground v.1.15,2013-05-18 22:05:00,
2013-05-18 14:11:00,30.3,22.0,29.78,SSE,155,9.0,11.0,71,0.00,,,0.00,Wunderground v.1.15,2013-05-18 22:11:00,
2013-05-18 14:17:00,30.5,22.5,29.78,South,183,9.0,11.0,72,0.00,,,0.00,Wunderground v.1.15,2013-05-18 22:17:00,
2013-05-18 14:22:00,31.0,23.0,29.79,SE,141,8.0,13.0,72,0.00,,,0.00,Wunderground v.1.15,2013-05-18 22:22:00,
2013-05-18 14:28:00,30.6,22.3,29.79,SE,141,10.0,13.0,71,0.00,,,0.00,Wunderground v.1.15,2013-05-18 22:28:00,
2013-05-18 14:34:00,30.5,22.2,29.80,East,100,11.0,13.0,71,0.00,,,0.00,Wunderground v.1.15,2013-05-18 22:34:00,
2013-05-18 14:40:00,30.9,22.6,29.80,SE,133,11.0,11.0,71,0.00,,,0.00,Wunderground v.1.15,2013-05-18 22:40:00,
2013-05-18 14:45:00,31.1,22.8,29.80,SE,145,10.0,15.0,71,0.00,,,0.00,Wunderground v.1.15,2013-05-18 22:45:00,
2013-05-18 14:51:00,31.3,22.6,29.80,ESE,119,11.0,13.0,70,0.00,,,0.00,Wunderground v.1.15,2013-05-18 22:51:00,
2013-05-18 14:57:00,31.2,22.5,29.81,SE,141,11.0,13.0,70,0.00,,,0.00,Wunderground v.1.15,2013-05-18 22:57:00,
2013-05-18 15:02:00,31.4,23.1,29.81,SSE,163,11.0,13.0,71,0.00,,,0.00,Wunderground v.1.15,2013-05-18 23:02:00,
2013-05-18 15:08:00,32.1,24.1,29.81,SSE,162,10.0,13.0,72,0.00,,,0.00,Wunderground v.1.15,2013-05-18 23:08:00,
2013-05-18 15:14:00,31.7,23.0,29.81,South,176,10.0,12.0,70,0.00,,,0.00,Wunderground v.1.15,2013-05-18 23:14:00,
2013-05-18 15:20:00,31.4,22.4,29.82,SE,136,11.0,11.0,69,0.00,,,0.00,Wunderground v.1.15,2013-05-18 23:20:00,
2013-05-18 15:26:00,31.3,22.3,29.82,SSE,155,11.0,17.0,69,0.00,,,0.00,Wunderground v.1.15,2013-05-18 23:26:00,
2013-05-18 15:31:00,30.7,22.1,29.82,SE,136,12.0,15.0,70,0.00,,,0.00,Wunderground v.1.15,2013-05-18 23:31:00,
2013-05-18 15:37:00,30.6,22.0,29.83,ESE,113,12.0,15.0,70,0.00,,,0.00,Wunderground v.1.15,2013-05-18 23:37:00,
2013-05-18 15:43:00,30.7,21.4,29.83,SSE,150,10.0,11.0,68,0.00,,,0.00,Wunderground v.1.15,2013-05-18 23:43:00,
2013-05-18 15:49:00,30.9,21.9,29.83,SE,138,9.0,11.0,69,0.00,,,0.00,Wunderground v.1.15,2013-05-18 23:49:00,
2013-05-18 15:55:00,30.9,22.3,29.83,ESE,108,9.0,10.0,70,0.00,,,0.00,Wunderground v.1.15,2013-05-18 23:55:00,
2013-05-18 16:01:00,31.2,20.1,29.83,East,86,8.0,8.0,63,0.00,,,0.00,Wunderground v.1.15,2013-05-19 00:01:00,
2013-05-18 16:07:00,31.8,21.4,29.84,SE,134,8.0,9.0,65,0.00,,,0.00,Wunderground v.1.15,2013-05-19 00:07:00,
2013-05-18 16:12:00,31.8,20.6,29.84,SE,141,8.0,12.0,63,0.00,,,0.00,Wunderground v.1.15,2013-05-19 00:12:00,
2013-05-18 16:18:00,31.8,21.0,29.85,East,98,9.0,13.0,64,0.00,,,0.00,Wunderground v.1.15,2013-05-19 00:18:00,
2013-05-18 16:24:00,32.0,21.2,29.85,East,97,9.0,11.0,64,0.00,,,0.00,Wunderground v.1.15,2013-05-19 00:24:00,
2013-05-18 16:30:00,31.9,20.3,29.85,East,101,9.0,9.0,62,0.00,,,0.00,Wunderground v.1.15,2013-05-19 00:30:00,
2013-05-18 16:36:00,31.9,20.3,29.86,SE,141,8.0,9.0,62,0.00,,,0.00,Wunderground v.1.15,2013-05-19 00:36:00,
2013-05-18 16:42:00,32.0,20.4,29.86,ESE,115,8.0,11.0,62,0.00,,,0.00,Wunderground v.1.15,2013-05-19 00:42:00,
2013-05-18 16:48:00,32.1,21.3,29.86,SE,131,7.0,11.0,64,0.00,,,0.00,Wunderground v.1.15,2013-05-19 00:48:00,
2013-05-18 16:54:00,31.8,20.6,29.87,SE,132,7.0,9.0,63,0.00,,,0.00,Wunderground v.1.15,2013-05-19 00:54:00,
2013-05-18 16:59:00,31.6,21.5,29.87,South,176,8.0,9.0,66,0.00,,,0.00,Wunderground v.1.15,2013-05-19 00:59:00,
2013-05-18 17:05:00,31.3,21.3,29.88,ESE,121,8.0,10.0,66,0.00,,,0.00,Wunderground v.1.15,2013-05-19 01:05:00,
2013-05-18 17:11:00,31.1,21.1,29.88,SSE,150,7.0,8.0,66,0.00,,,0.00,Wunderground v.1.15,2013-05-19 01:11:00,
2013-05-18 17:17:00,31.2,21.5,29.88,SSE,156,7.0,9.0,67,0.00,,,0.00,Wunderground v.1.15,2013-05-19 01:17:00,
2013-05-18 17:23:00,31.2,21.2,29.88,SE,143,7.0,10.0,66,0.00,,,0.00,Wunderground v.1.15,2013-05-19 01:23:00,
2013-05-18 17:29:00,31.3,21.3,29.89,SE,127,7.0,11.0,66,0.00,,,0.00,Wunderground v.1.15,2013-05-19 01:29:00,
2013-05-18 17:35:00,31.2,21.2,29.89,SE,143,9.0,13.0,66,0.00,,,0.00,Wunderground v.1.15,2013-05-19 01:35:00,
2013-05-18 17:41:00,31.2,20.8,29.89,SE,131,10.0,11.0,65,0.00,,,0.00,Wunderground v.1.15,2013-05-19 01:41:00,
2013-05-18 17:47:00,31.1,21.1,29.90,SSE,156,9.0,11.0,66,0.00,,,0.00,Wunderground v.1.15,2013-05-19 01:47:00,
2013-05-18 17:52:00,31.2,21.5,29.90,ESE,119,9.0,10.0,67,0.00,,,0.00,Wunderground v.1.15,2013-05-19 01:52:00,
2013-05-18 17:58:00,31.4,21.0,29.91,SE,131,8.0,14.0,65,0.00,,,0.00,Wunderground v.1.15,2013-05-19 01:58:00,
2013-05-18 18:04:00,31.2,21.2,29.91,SE,141,8.0,11.0,66,0.00,,,0.00,Wunderground v.1.15,2013-05-19 02:04:00,
2013-05-18 18:10:00,31.4,21.0,29.91,SE,141,8.0,11.0,65,0.00,,,0.00,Wunderground v.1.15,2013-05-19 02:10:00,
2013-05-18 18:16:00,31.3,20.9,29.91,ENE,76,9.0,13.0,65,0.00,,,0.00,Wunderground v.1.15,2013-05-19 02:16:00,
2013-05-18 18:22:00,31.3,21.3,29.92,East,86,9.0,11.0,66,0.00,,,0.00,Wunderground v.1.15,2013-05-19 02:22:00,
2013-05-18 18:28:00,31.4,21.3,29.92,ESE,113,8.0,11.0,66,0.00,,,0.00,Wunderground v.1.15,2013-05-19 02:28:00,
2013-05-18 18:34:00,31.5,21.8,29.92,SE,137,8.0,9.0,67,0.00,,,0.00,Wunderground v.1.15,2013-05-19 02:34:00,
2013-05-18 18:39:00,31.4,21.3,29.92,SSE,155,8.0,10.0,66,0.00,,,0.00,Wunderground v.1.15,2013-05-19 02:39:00,
2013-05-18 18:45:00,31.2,20.8,29.93,SSE,151,9.0,13.0,65,0.00,,,0.00,Wunderground v.1.15,2013-05-19 02:45:00,
2013-05-18 18:51:00,31.4,19.5,29.93,East,86,10.0,15.0,61,0.00,,,0.00,Wunderground v.1.15,2013-05-19 02:51:00,
2013-05-18 18:57:00,31.6,18.9,29.93,ENE,68,9.0,15.0,59,0.00,,,0.00,Wunderground v.1.15,2013-05-19 02:57:00,
2013-05-18 19:03:00,31.6,18.1,29.94,SE,124,10.0,14.0,57,0.00,,,0.00,Wunderground v.1.15,2013-05-19 03:03:00,
2013-05-18 19:09:00,31.7,18.6,29.94,SE,131,11.0,14.0,58,0.00,,,0.00,Wunderground v.1.15,2013-05-19 03:09:00,
2013-05-18 19:15:00,31.8,18.3,29.94,East,101,11.0,12.0,57,0.00,,,0.00,Wunderground v.1.15,2013-05-19 03:15:00,
2013-05-18 19:20:00,31.7,18.2,29.94,SE,124,10.0,10.0,57,0.00,,,0.00,Wunderground v.1.15,2013-05-19 03:20:00,
2013-05-18 19:26:00,31.7,18.2,29.95,ESE,115,10.0,14.0,57,0.00,,,0.00,Wunderground v.1.15,2013-05-19 03:26:00,
2013-05-18 19:32:00,31.7,18.2,29.95,SE,128,10.0,13.0,57,0.00,,,0.00,Wunderground v.1.15,2013-05-19 03:32:00,
2013-05-18 19:38:00,31.7,18.2,29.95,ESE,114,11.0,13.0,57,0.00,,,0.00,Wunderground v.1.15,2013-05-19 03:38:00,
2013-05-18 19:43:00,31.8,18.7,29.96,ENE,72,10.0,11.0,58,0.00,,,0.00,Wunderground v.1.15,2013-05-19 03:43:00,
2013-05-18 19:49:00,31.8,18.7,29.96,SSE,159,9.0,13.0,58,0.00,,,0.00,Wunderground v.1.15,2013-05-19 03:49:00,
2013-05-18 19:55:00,31.8,17.9,29.97,SSE,152,10.0,13.0,56,0.00,,,0.00,Wunderground v.1.15,2013-05-19 03:55:00,
2013-05-18 20:01:00,31.7,18.2,29.97,SE,135,10.0,11.0,57,0.00,,,0.00,Wunderground v.1.15,2013-05-19 04:01:00,
2013-05-18 20:02:00,31.7,17.8,29.97,ESE,121,10.0,11.0,56,0.00,,,0.00,Wunderground v.1.15,2013-05-19 04:02:00,
2013-05-18 20:03:00,31.7,17.4,29.97,ESE,114,10.0,11.0,55,0.00,,,0.00,Wunderground v.1.15,2013-05-19 04:03:00,
2013-05-18 20:08:00,31.7,17.8,29.97,East,98,9.0,11.0,56,0.00,,,0.00,Wunderground v.1.15,2013-05-19 04:08:00,
2013-05-18 20:11:00,31.7,17.4,29.97,East,98,9.0,12.0,55,0.00,,,0.00,Wunderground v.1.15,2013-05-19 04:11:00,
2013-05-18 20:17:00,31.7,17.8,29.98,ESE,115,9.0,12.0,56,0.00,,,0.00,Wunderground v.1.15,2013-05-19 04:17:00,
2013-05-18 20:23:00,31.7,17.8,29.98,SSE,158,8.0,9.0,56,0.00,,,0.00,Wunderground v.1.15,2013-05-19 04:23:00,
2013-05-18 20:28:00,31.7,17.4,29.98,SSE,152,8.0,12.0,55,0.00,,,0.00,Wunderground v.1.15,2013-05-19 04:28:00,
2013-05-18 20:34:00,31.7,17.4,29.99,South,169,8.0,9.0,55,0.00,,,0.00,Wunderground v.1.15,2013-05-19 04:34:00,
2013-05-18 20:40:00,31.7,16.9,29.99,SE,124,9.0,11.0,54,0.00,,,0.00,Wunderground v.1.15,2013-05-19 04:40:00,
2013-05-18 20:46:00,31.7,16.5,29.99,SSE,157,8.0,11.0,53,0.00,,,0.00,Wunderground v.1.15,2013-05-19 04:46:00,
2013-05-18 20:52:00,31.7,16.5,30.00,SE,145,8.0,9.0,53,0.00,,,0.00,Wunderground v.1.15,2013-05-19 04:52:00,
2013-05-18 20:57:00,31.7,16.1,30.00,SSE,151,8.0,10.0,52,0.00,,,0.00,Wunderground v.1.15,2013-05-19 04:57:00,
2013-05-18 21:03:00,31.8,15.7,30.00,ESE,109,9.0,11.0,51,0.00,,,0.00,Wunderground v.1.15,2013-05-19 05:03:00,
2013-05-18 21:09:00,31.7,16.1,30.00,ESE,111,9.0,11.0,52,0.00,,,0.00,Wunderground v.1.15,2013-05-19 05:09:00,
2013-05-18 21:15:00,31.8,16.2,30.01,SE,129,8.0,9.0,52,0.00,,,0.00,Wunderground v.1.15,2013-05-19 05:15:00,
2013-05-18 21:21:00,31.7,15.6,30.01,ESE,113,8.0,9.0,51,0.00,,,0.00,Wunderground v.1.15,2013-05-19 05:21:00,
2013-05-18 21:26:00,31.7,15.6,30.01,SE,146,9.0,11.0,51,0.00,,,0.00,Wunderground v.1.15,2013-05-19 05:26:00,
2013-05-18 21:32:00,31.6,16.0,30.02,SSE,149,8.0,9.0,52,0.00,,,0.00,Wunderground v.1.15,2013-05-19 05:32:00,
2013-05-18 21:38:00,31.6,15.5,30.02,SE,139,7.0,9.0,51,0.00,,,0.00,Wunderground v.1.15,2013-05-19 05:38:00,
2013-05-18 21:44:00,31.7,15.6,30.02,ESE,115,7.0,9.0,51,0.00,,,0.00,Wunderground v.1.15,2013-05-19 05:44:00,
2013-05-18 21:49:00,32.0,15.4,30.03,ESE,104,7.0,10.0,50,0.00,,,0.00,Wunderground v.1.15,2013-05-19 05:49:00,
2013-05-18 21:55:00,32.2,15.2,30.03,ESE,113,7.0,11.0,49,0.00,,,0.00,Wunderground v.1.15,2013-05-19 05:55:00,
2013-05-18 22:01:00,32.2,15.2,30.03,South,169,7.0,8.0,49,0.00,,,0.00,Wunderground v.1.15,2013-05-19 06:01:00,
2013-05-18 22:07:00,32.2,15.6,30.04,SE,127,7.0,10.0,50,0.00,,,0.00,Wunderground v.1.15,2013-05-19 06:07:00,
2013-05-18 22:12:00,32.1,15.5,30.04,ESE,113,7.0,8.0,50,0.00,,,0.00,Wunderground v.1.15,2013-05-19 06:12:00,
2013-05-18 22:18:00,31.8,15.3,30.05,ESE,121,6.0,8.0,50,0.00,,,0.00,Wunderground v.1.15,2013-05-19 06:18:00,
2013-05-18 22:24:00,31.7,15.6,30.05,SE,136,6.0,8.0,51,0.00,,,0.00,Wunderground v.1.15,2013-05-19 06:24:00,
2013-05-18 22:29:00,31.6,15.5,30.05,ESE,121,5.0,8.0,51,0.00,,,0.00,Wunderground v.1.15,2013-05-19 06:29:00,
2013-05-18 22:35:00,31.5,15.4,30.06,SE,124,6.0,8.0,51,0.00,,,0.00,Wunderground v.1.15,2013-05-19 06:35:00,
2013-05-18 22:41:00,31.4,15.3,30.06,SSE,151,7.0,8.0,51,0.00,,,0.00,Wunderground v.1.15,2013-05-19 06:41:00,
2013-05-18 22:47:00,31.2,15.2,30.06,SSE,150,7.0,9.0,51,0.00,,,0.00,Wunderground v.1.15,2013-05-19 06:47:00,
2013-05-18 22:53:00,31.0,15.4,30.07,SSE,152,7.0,9.0,52,0.00,,,0.00,Wunderground v.1.15,2013-05-19 06:53:00,
2013-05-18 22:59:00,30.7,15.6,30.07,SSE,157,7.0,9.0,53,0.00,,,0.00,Wunderground v.1.15,2013-05-19 06:59:00,
2013-05-18 23:05:00,30.4,15.3,30.07,SE,138,7.0,8.0,53,0.00,,,0.00,Wunderground v.1.15,2013-05-19 07:05:00,
2013-05-18 23:11:00,30.2,15.1,30.08,ESE,116,7.0,9.0,53,0.00,,,0.00,Wunderground v.1.15,2013-05-19 07:11:00,
2013-05-18 23:17:00,30.1,14.6,30.08,SE,141,7.0,9.0,52,0.00,,,0.00,Wunderground v.1.15,2013-05-19 07:17:00,
2013-05-18 23:23:00,30.0,14.9,30.08,SSE,148,8.0,10.0,53,0.00,,,0.00,Wunderground v.1.15,2013-05-19 07:23:00,
2013-05-18 23:28:00,29.9,14.4,30.08,SE,132,8.0,10.0,52,0.00,,,0.00,Wunderground v.1.15,2013-05-19 07:28:00,
2013-05-18 23:34:00,29.7,14.6,30.09,SSE,168,7.0,8.0,53,0.00,,,0.00,Wunderground v.1.15,2013-05-19 07:34:00,
2013-05-18 23:40:00,29.6,14.5,30.09,SSE,155,7.0,8.0,53,0.00,,,0.00,Wunderground v.1.15,2013-05-19 07:40:00,
2013-05-18 23:46:00,29.5,14.5,30.09,SSE,148,7.0,9.0,53,0.00,,,0.00,Wunderground v.1.15,2013-05-19 07:46:00,
2013-05-18 23:51:00,29.4,14.4,30.09,SE,132,7.0,8.0,53,0.00,,,0.00,Wunderground v.1.15,2013-05-19 07:51:00,
2013-05-18 23:57:00,29.3,14.3,30.10,SSE,156,7.0,8.0,53,0.00,,,0.00,Wunderground v.1.15,2013-05-19 07:57:00,